W4AWS Weather Reports


time (UTC)temp
F
wind
direction
speed
knots
gust
knots
rain 1hr
in
rain 24hr
in
rain mn
in
humidity
%
barometer
mb
20260507150517 55 315 0.9 1.7 0.02 0.34 0.34 77 1012.8
20260507145516 55 0.0 0.9 0.02 0.34 0.34 76 1013.3
20260507144516 54 0.0 1.7 0.02 0.34 0.34 75 1013.4
20260507143516 54 90 0.9 3.5 0.01 0.33 0.33 75 1013.3
20260507142536 54 68 0.9 2.6 0.01 0.33 0.33 75 1013.2
20260507141516 54 113 0.9 2.6 0.01 0.33 0.33 75 1013.6
20260507140516 54 315 0.9 4.3 0.01 0.32 0.32 74 1013.4
20260507135536 54 45 0.9 4.3 0.01 0.32 0.32 74 1013.2
20260507134516 55 315 2.6 7.8 0.01 0.32 0.32 74 1013.4
20260507133516 56 315 1.7 7.8 0.01 0.32 0.32 78 1013.5
20260507132536 56 45 0.9 2.6 0.02 0.32 0.32 80 1013.4
20260507131536 57 90 0.9 3.5 0.02 0.32 0.32 80 1013.4
20260507130516 57 293 0.9 3.5 0.02 0.31 0.31 80 1013.0
20260507125516 58 90 0.9 4.3 0.02 0.31 0.31 80 1012.7
20260507124516 58 113 0.9 2.6 0.03 0.31 0.31 80 1012.9
20260507123536 58 0.0 1.7 0.05 0.31 0.31 80 1012.8
20260507122516 58 113 0.9 1.7 0.06 0.30 0.30 80 1013.0
20260507121516 58 0.0 0.9 0.07 0.30 0.30 79 1013.1
20260507120516 58 0.0 2.6 0.07 0.29 0.29 79 1012.9
20260507115536 58 270 0.9 1.7 0.07 0.29 0.29 79 1012.9
20260507114516 59 270 0.9 1.7 0.08 0.28 0.28 79 1013.0
20260507113516 59 90 0.9 2.6 0.07 0.26 0.26 79 1012.8
20260507112536 59 293 0.9 2.6 0.07 0.24 0.24 79 1012.6
20260507111536 60 338 0.9 5.2 0.08 0.23 0.23 79 1012.4
20260507110516 61 113 0.9 2.6 0.08 0.22 0.22 79 1012.3
20260507105516 61 338 1.7 3.5 0.09 0.22 0.22 79 1011.9
20260507104536 62 68 0.9 3.5 0.08 0.20 0.20 79 1011.8
20260507103516 63 90 0.9 6.1 0.09 0.19 0.19 78 1011.5
20260507102536 64 90 0.9 3.5 0.09 0.17 0.17 78 1011.7
20260507101516 66 90 0.9 3.5 0.09 0.15 0.15 81 1011.4
20260507095516 66 0.0 0.0 0.07 0.13 0.13 80 1011.3
20260507094536 66 0.0 0.0 0.06 0.12 0.12 80 1011.1
20260507093516 66 0.0 0.9 0.04 0.10 0.10 80 1011.1
20260507092536 66 0.0 0.9 0.02 0.08 0.08 80 1011.0
20260507091516 66 0.0 0.9 0.00 0.06 0.06 80 1011.1
20260507090516 66 0.0 0.9 0.00 0.06 0.06 79 1010.7
20260507085516 67 0.0 0.0 0.00 0.06 0.06 79 1010.6
20260507084516 67 0.0 1.7 0.00 0.06 0.06 79 1010.8
20260507083515 67 0.0 1.7 0.00 0.06 0.06 78 1010.8
20260507082536 67 23 0.9 2.6 0.00 0.06 0.06 78 1011.0
20260507081516 67 0.0 0.9 0.00 0.06 0.06 78 1010.4
20260507080536 67 248 0.9 1.7 0.00 0.06 0.06 78 1010.4
20260507075516 67 180 0.9 4.3 0.01 0.06 0.06 78 1010.5
20260507074516 67 158 0.9 2.6 0.01 0.06 0.06 78 1010.7
20260507073516 67 68 0.9 4.3 0.01 0.06 0.06 78 1010.8
20260507072516 66 0.0 1.7 0.02 0.06 0.06 77 1010.8
20260507071515 66 0.0 1.7 0.03 0.06 0.06 77 1010.7
20260507070515 66 0.0 1.7 0.05 0.06 0.06 75 1010.6
20260507065516 66 90 0.9 2.6 0.04 0.05 0.05 74 1010.5
20260507064515 67 180 0.9 3.5 0.05 0.05 0.05 73 1010.3
20260507063556 67 180 0.9 3.5 0.05 0.05 0.05 72 1010.6
20260507062536 67 0.0 1.7 0.04 0.04 0.04 71 1010.4
20260507061515 67 225 0.9 2.6 0.03 0.03 0.03 69 1010.7
20260507060535 67 0.0 0.0 0.01 0.01 0.01 69 1011.1
20260507055515 67 0.0 0.0 0.01 0.01 0.01 68 1011.6
20260507054515 67 0.0 0.0 0.00 0.00 0.00 68 1011.6
20260507053515 67 0.0 0.0 0.00 0.00 0.00 68 1011.7
20260507052515 67 0.0 0.9 0.00 0.00 0.00 68 1011.8
20260507051516 67 0.0 0.0 0.00 0.00 0.00 67 1011.9
20260507050516 68 0.0 0.0 0.00 0.00 0.00 67 1012.1
20260507045517 68 0.0 0.0 0.00 0.00 0.00 67 1012.0
20260507044517 69 0.0 0.0 0.00 0.00 0.00 66 1011.8
20260507043517 69 0.0 0.0 0.00 0.00 0.00 66 1011.6
20260507042517 69 0.0 0.0 0.00 0.00 0.00 65 1011.8
20260507041517 69 0.0 0.0 0.00 0.00 0.00 65 1011.8
20260507040517 69 0.0 0.0 0.00 0.00 0.00 65 1011.8
20260507035515 69 0.0 0.0 0.00 0.00 0.00 64 1011.7
20260507034516 69 0.0 0.0 0.00 0.00 0.00 64 1011.7
20260507033516 69 0.0 0.0 0.00 0.00 0.00 64 1011.7
20260507032516 69 0.0 0.9 0.00 0.00 0.00 64 1011.7
20260507031516 69 0.0 0.9 0.00 0.00 0.00 64 1011.6
20260507030515 69 0.0 0.9 0.00 0.00 0.00 64 1011.5
20260507025536 69 0.0 1.7 0.00 0.00 0.00 64 1011.6
20260507024516 69 0.0 4.3 0.00 0.00 0.00 64 1011.8
20260507023516 69 0.0 0.0 0.00 0.00 0.00 64 1011.7
20260507022515 69 0.0 0.0 0.00 0.00 0.00 63 1012.1
20260507021515 69 0.0 0.0 0.00 0.00 0.00 63 1011.9
20260507020516 69 0.0 0.0 0.00 0.00 0.00 62 1011.9
20260507015516 70 0.0 0.0 0.00 0.00 0.00 61 1012.1
20260507014542 70 0.0 0.0 0.00 0.00 0.00 61 1012.2
20260507013516 70 0.0 0.0 0.00 0.00 0.00 60 1011.8
20260507012516 71 0.0 0.0 0.00 0.00 0.00 60 1011.9
20260507011515 71 0.0 1.7 0.00 0.00 0.00 59 1011.8
20260507010515 71 0.0 1.7 0.00 0.00 0.00 59 1011.9
20260507005515 71 0.0 3.5 0.00 0.00 0.00 59 1012.0
20260507004515 71 0.0 1.7 0.00 0.00 0.00 58 1012.1
20260507003515 72 0.0 0.9 0.00 0.00 0.00 57 1012.1
20260507002515 72 0.0 1.7 0.00 0.00 0.00 57 1012.0
20260507001517 72 0.0 1.7 0.00 0.00 0.00 56 1011.9
20260507000517 73 0.0 1.7 0.00 0.00 0.00 55 1011.8
20260506235517 73 180 0.9 2.6 0.00 0.00 0.00 55 1011.8
20260506234517 73 0.0 2.6 0.00 0.00 0.00 55 1011.7
20260506233517 73 0.0 1.7 0.00 0.00 0.00 54 1011.5
20260506232517 73 0.0 3.5 0.00 0.00 0.00 54 1011.3
20260506231517 74 0.0 3.5 0.00 0.00 0.00 54 1011.2
20260506230517 74 0.0 3.5 0.00 0.00 0.00 54 1011.2
20260506225517 74 0.0 0.9 0.00 0.00 0.00 55 1011.3
20260506224517 74 0.0 0.9 0.00 0.00 0.00 54 1011.2
20260506223517 74 0.0 0.0 0.00 0.00 0.00 54 1011.2
20260506222517 74 0.0 0.0 0.00 0.00 0.00 54 1011.4
20260506221517 74 0.0 0.0 0.00 0.00 0.00 54 1011.6
20260506220517 74 0.0 0.0 0.00 0.00 0.00 54 1011.4
20260506215517 75 0.0 0.0 0.00 0.00 0.00 53 1011.3
20260506214517 75 0.0 1.7 0.00 0.00 0.00 53 1011.2
20260506213517 75 0.0 1.7 0.00 0.00 0.00 51 1011.2
20260506212517 75 158 0.9 3.5 0.00 0.00 0.00 50 1011.4
20260506211517 75 0.0 0.0 0.00 0.00 0.00 51 1011.4
20260506210517 75 113 0.9 2.6 0.00 0.00 0.00 51 1011.1
20260506205517 75 135 1.7 11.3 0.00 0.00 0.00 50 1010.9
20260506204517 75 203 0.9 5.2 0.00 0.00 0.00 50 1010.8
20260506203517 75 203 0.9 6.1 0.00 0.00 0.00 51 1010.8
20260506202517 75 180 0.9 5.2 0.00 0.00 0.00 51 1010.9
20260506201537 75 248 0.9 4.3 0.00 0.00 0.00 52 1011.0
20260506200517 74 68 0.9 3.5 0.00 0.00 0.00 53 1011.3
20260506195517 74 270 0.9 4.3 0.00 0.00 0.00 54 1011.4
20260506194537 74 225 0.9 2.6 0.00 0.00 0.00 54 1011.6
20260506193517 74 180 1.7 6.1 0.00 0.00 0.00 53 1011.9
20260506192517 75 45 0.9 3.5 0.00 0.00 0.00 53 1012.3
20260506191517 75 0 0.9 3.5 0.00 0.00 0.00 53 1012.6
20260506190517 75 0.0 1.7 0.00 0.00 0.00 54 1012.9
20260506185517 75 225 0.9 6.1 0.00 0.00 0.00 52 1012.9
20260506184517 75 158 0.9 4.3 0.00 0.00 0.00 53 1013.1
20260506183517 75 180 1.7 4.3 0.00 0.00 0.00 52 1013.1
20260506182517 75 270 0.9 2.6 0.00 0.00 0.00 54 1013.1
20260506181517 75 338 0.9 4.3 0.00 0.00 0.00 55 1013.1
20260506180517 74 113 0.9 3.5 0.00 0.00 0.00 56 1013.0
20260506175517 73 315 1.7 7.8 0.00 0.00 0.00 56 1013.1
20260506174517 73 45 0.9 3.5 0.00 0.00 0.00 57 1013.2
20260506173517 72 45 0.9 3.5 0.00 0.00 0.00 57 1013.2
20260506172517 72 248 1.7 5.2 0.00 0.00 0.00 57 1013.4
20260506171517 71 315 0.9 4.3 0.00 0.00 0.00 58 1013.7
20260506170517 71 293 1.7 5.2 0.00 0.00 0.00 59 1014.3
20260506165517 70 180 0.9 6.1 0.00 0.00 0.00 60 1014.4
20260506164516 70 135 0.9 3.5 0.00 0.00 0.00 60 1014.4
20260506163517 70 180 0.9 3.5 0.00 0.00 0.00 61 1014.5
20260506162516 70 270 1.7 8.7 0.00 0.00 0.00 61 1014.5
20260506161536 69 293 0.9 3.5 0.00 0.00 0.00 61 1014.6
20260506160517 69 270 0.9 4.3 0.00 0.00 0.00 61 1014.7
20260506155516 69 90 1.7 4.3 0.00 0.00 0.00 61 1014.9
20260506154517 69 315 0.9 3.5 0.00 0.00 0.00 61 1015.0
20260506153516 69 23 0.9 3.5 0.00 0.00 0.00 61 1015.2
20260506152517 70 203 0.9 3.5 0.00 0.00 0.00 59 1015.3
20260506151516 70 293 1.7 7.8 0.00 0.00 0.00 59 1015.1